SCP
0 0 0 0 0 0 0 0 0 0 0 0 0 0 0 0 0 0 0 0 0 0 0 0 0 0 0 0 0 0 0 0 0 0 0 0 0 0
0 0 0 0 0 0 0 0 0 0 0 0 0 0 0 0 0 0 0 0 0 0 0 0 0 0 0 0 0 0 0 0 0 0 0 0 0 0
0 0 0 0 0 0 0 0 0 0 0 0 0 0 0 0 0 0 0 0 0 0 0 0 0 0 0 0 0 0 0 0 0 0 0 0 0 0
0 0 0 0 0 0 0 0 0 0 0 0 0 0 0 0 0 0 0 0 0 0 0 0 0 0 0 0 0 0 0 0 0 0 0 0 0 0
0 0 0 0 0 0 0 0 0 0 0 0 0 0 0 0 0 0 0 0 0 0 0 0 0 0 0 0 0 0 0 0 0 0 0 0 0 0
0 0 0 0 0 0 0 0 0 0 0 0 0 0 0 0 0 0 0 0 0 0 0 0 0 0 0 0 0 0 0 0 0 0 0 0 0 0
0 0 0 0 0 0 0 0 0 0 0 0 0 0 0 0 0 0 0 0 0 0 0 0 0 0 0 0 0 0 0 0 0 0 0 0 0 0
0 0 0 0 0 0 0 0 0 0 0 0 0 0 0 0 0 0 0 0 0 0 0 0 0 0 0 0 0 0 0 0 0 0 0 0 0 0
0 0 0 0 0 0 0 0 0 0 0 0 0 0 0 0 0 0 0 0 0 0 0 0 0 0 0 0 -0 0 0 -0 0 0 0 0 0 0
0 0 0 0 0 0 0 0 0 0 0 0 0 0 0 0 0 0 0 0 0 0 0 0 0 0 0 0 -0 -0 -0 -0 0 0 0 0 0 0
0 0 0 0 0 0 0 0 0 0 0 0 0 0 0 0 0 0 0 0 0 0 0 0 0 0 0 0 -0 -0 -0 -0 0 0 -0 -0 -0 0
0 0 0 0 0 0 0 0 0 0 0 0 0 0 0 0 0 0 0 0 0 0 0 0 0 0 0 0 0 0 0 0 0 0 -0 -0 -0 0
0 0 0 0 0 0 0 0 0 0 0 0 0 0 0 0 0 0 0 0 0 0 0 0 0 0 0 0 0 0 0 0 0 0 0 0 0 0
0 0 0 0 0 0 0 0 0 0 0 0 0 0 0 0 0 0 0 0 0 0 0 0 0 0 0 0 0 0 0 0 0 0 0 0 0 0
0 0 0 0 0 0 0 0 0 0 0 0 0 0 0 0 0 0 0 0 0 0 0 0 0 0 0 0 0 0 0 0 0 0 0 0 0 0
0 0 0 0 0 0 0 0 0 0 0 0 0 0 0 0 0 0 0 0 0 0 0 0 0 0 0 0 0 0 0 0 0 0 0 0 0 0
0 0 0 0 0 0 0 0 0 0 0 0 0 0 0 0 0 0 0 0 0 0 0 0 0 0 0 0 0 0 0 0 0 0 0 0 0 0
0 0 0 0 0 0 0 0 0 0 0 0 0 0 0 0 0 0 0 0 0 0 0 0 0 0 0 0 0 0 0 0 0 0 0 0 0 0
0 0 0 0 0 0 0 0 0 0 0 0 0 0 0 0 0 0 0 0 0 0 0 0 0 0 0 0 0 0 0 0 0 0 0 0 0 0
0 0 0 0 0 0 0 0 0 0 0 0 0 0 0 0 0 0 0 0 0 0 0 0 0 0 0 0 0 0 0 0 0 0 0 0 0 0
0 0 0 0 0 0 0 0 0 0 0 0 0 0 0 0 0 0 0 0 0 0 0 0 0 0 0 0 0 0 0 0 0 0 0 0 0 0
0 0 0 0 0 0 0 0 0 0 0 0 0 0 0 0 0 0 0 0 0 0 0 0 0 0 0 0 0 0 0 0 0 0 0 0 0 0
0 0 0 0 0 0 0 0 0 0 0 0 0 0 0 0 0 0 0 0 0 0 0 0 0 0 0 0 0 0 0 0 0 0 0 0 0 0
Wind_Speed_500mb
62 64 62 57 52 59 54 61 60 44 52 44 32 40 33 30 28 28 24 26 29 34 38 41 46 51 56 59 65 69 71 70 69 65 58 58 58 63
44 41 40 36 34 33 35 40 43 31 36 34 39 31 32 26 22 19 22 27 34 39 43 48 52 56 60 64 67 69 72 72 72 70 67 64 62 62
41 35 38 35 33 30 24 26 22 18 21 31 34 30 17 15 17 22 27 32 36 42 45 49 54 57 59 61 67 70 69 67 62 59 60 64 63 64
50 41 46 38 32 30 25 18 11 10 13 20 22 16 13 16 22 27 32 36 37 42 46 51 56 58 56 68 70 68 62 58 56 60 65 70 74 71
46 40 40 30 35 32 27 27 23 19 16 16 12 9 13 20 26 31 36 40 41 44 50 53 51 56 63 61 60 53 51 52 58 63 69 71 71 66
48 49 48 38 37 29 22 21 19 16 13 9 4 7 15 21 30 37 41 47 49 49 53 52 61 70 68 61 49 45 49 57 62 65 62 58 61 63
45 43 36 36 33 26 19 15 12 13 9 6 7 13 21 28 34 39 48 53 55 53 54 65 73 76 69 55 59 56 60 63 58 50 45 61 67 65
40 37 31 27 23 19 15 12 12 13 10 10 14 20 25 32 38 44 51 59 67 54 75 82 76 81 62 65 71 77 72 54 45 57 68 64 68 71
33 29 25 20 16 14 10 9 11 11 12 15 18 23 30 35 43 49 54 58 63 69 73 91 79 76 72 79 84 76 57 53 70 67 70 72 74 76
25 23 18 14 13 14 14 14 13 14 16 20 24 27 33 39 45 51 57 62 69 70 60 91 76 82 86 92 75 65 70 85 77 72 78 77 80 83
18 14 14 11 9 9 11 13 15 18 20 22 26 31 36 39 44 53 54 61 72 73 61 56 76 89 100 76 68 64 76 67 70 84 86 81 80 84
12 10 11 13 15 18 21 23 24 28 29 30 32 35 39 41 43 50 53 58 61 69 52 64 76 75 90 80 71 97 92 96 91 95 88 80 74 82
9 10 11 13 16 20 24 27 30 34 37 41 43 44 46 48 51 53 55 59 62 68 67 66 85 86 80 99 106 108 98 98 103 100 91 79 70 63
11 13 16 19 22 26 30 33 36 40 42 46 48 49 51 52 54 58 58 61 63 71 68 66 86 84 91 105 112 109 105 106 102 98 83 80 76 71
13 15 17 22 27 30 33 36 40 43 45 48 51 53 55 58 61 64 65 68 72 71 68 71 81 84 85 97 108 111 106 109 89 81 83 87 86 78
17 22 26 31 34 38 40 42 45 47 50 53 55 57 61 64 66 67 72 72 80 81 67 71 79 80 87 90 96 111 106 99 103 96 96 93 87 82
26 29 31 34 38 42 45 48 51 54 57 59 61 64 67 70 72 71 74 78 83 88 87 77 81 85 85 86 96 99 103 100 96 97 96 97 89 85
43 39 41 42 45 49 52 55 57 59 61 64 67 69 71 73 77 76 76 79 86 88 90 92 94 94 96 92 80 90 88 97 97 93 94 87 98 74
52 53 52 50 52 56 60 64 66 67 68 68 70 72 75 78 82 84 82 83 88 90 93 96 94 90 85 85 92 77 79 87 99 100 87 86 91 87
61 61 63 61 62 62 65 69 72 73 74 74 74 75 77 81 85 85 84 86 89 94 99 95 90 88 83 93 94 103 84 88 86 88 90 92 92 89
74 73 70 70 71 72 73 76 78 79 78 79 78 79 80 83 89 88 88 88 91 96 102 99 93 86 88 90 96 105 94 73 67 79 92 92 98 96
80 82 79 79 80 79 79 82 85 84 84 84 83 83 85 87 91 90 90 92 96 100 101 100 94 87 86 83 95 102 103 90 80 77 67 70 84 95
86 87 86 86 85 86 86 86 88 89 87 86 85 85 87 93 91 90 91 95 100 101 99 102 93 89 90 86 88 97 99 96 93 90 89 64 62 61
Wind_Direction_500mb
241 219 215 207 195 200 206 203 212 182 198 207 206 208 212 222 234 251 275 290 288 283 283 287 291 292 293 294 294 295 297 297 298 297 293 291 290 289
185 176 179 177 184 190 197 201 207 213 195 208 210 208 214 224 243 264 268 269 276 284 288 290 293 296 298 298 298 301 302 300 297 294 293 292 291 290
142 142 135 133 129 132 147 169 182 175 174 188 203 210 228 236 249 262 271 279 283 289 293 295 297 299 302 305 305 302 299 298 296 295 295 293 291 289
111 111 109 106 109 112 122 135 143 146 162 163 169 190 228 259 270 277 284 288 292 295 298 301 302 305 309 309 305 301 300 299 299 297 292 288 285 286
113 104 89 97 99 98 108 117 125 130 129 131 155 212 258 278 286 294 298 298 304 304 306 306 306 309 311 308 301 299 299 298 294 291 289 288 287 290
115 107 110 114 106 108 110 107 109 112 108 110 144 276 288 294 305 310 309 313 313 312 309 308 314 314 318 314 307 304 304 304 301 297 293 296 297 294
102 100 102 92 95 96 91 90 90 77 63 30 342 316 322 319 316 315 316 315 312 316 316 317 319 315 321 314 313 314 316 316 307 302 302 303 298 296
101 101 98 94 95 92 83 70 55 43 21 352 331 324 323 319 317 319 319 322 322 325 319 318 320 316 318 314 318 326 327 321 314 310 306 303 302 297
98 98 95 89 79 70 56 35 23 1 337 331 328 326 321 321 320 325 322 317 313 316 319 313 320 312 317 319 324 322 325 320 315 312 312 312 305 297
90 82 79 72 52 30 13 0 346 337 333 332 330 326 322 325 322 316 315 312 312 315 326 306 317 315 318 318 321 321 322 323 319 309 307 303 296 294
69 64 51 36 21 355 331 320 320 321 319 318 322 325 323 321 315 311 315 310 311 314 325 300 316 315 318 323 323 318 314 304 296 304 310 302 296 295
49 30 6 353 348 331 318 320 321 320 320 316 317 320 319 317 313 312 314 309 310 315 319 306 309 320 318 311 303 310 309 311 312 316 311 305 298 294
18 3 346 334 322 310 313 320 322 322 323 322 322 322 320 318 318 316 315 309 304 299 318 310 303 310 305 308 307 310 312 312 316 316 313 311 309 299
351 342 337 328 321 324 324 321 318 316 317 316 316 319 319 319 317 315 313 308 306 308 313 305 299 306 308 307 304 311 311 312 317 315 314 311 306 303
319 316 313 316 322 322 320 316 313 313 312 312 315 318 319 320 319 316 313 313 311 312 312 307 306 310 307 305 304 307 309 313 315 313 310 304 304 305
322 329 328 326 325 323 321 319 318 316 314 313 313 316 318 319 318 317 314 315 311 312 311 310 312 311 307 305 306 304 309 302 313 312 313 307 306 308
310 313 316 317 318 320 320 320 318 317 316 315 314 314 315 317 318 318 315 313 309 312 314 315 316 314 308 306 302 306 308 308 311 313 311 304 304 307
297 303 309 313 315 316 317 318 317 316 315 314 313 312 312 314 316 315 313 311 310 313 314 317 319 317 314 308 301 304 303 302 304 301 303 294 299 305
289 293 297 304 311 315 316 316 316 315 313 312 310 310 311 313 315 314 314 312 311 312 313 315 316 314 302 292 308 305 294 294 295 297 301 297 296 304
286 288 293 296 300 306 312 313 313 313 312 311 309 309 310 311 312 312 311 311 311 311 311 315 316 316 304 297 297 301 307 290 296 297 304 305 302 304
287 290 293 294 295 297 302 308 310 311 311 309 308 307 308 310 310 311 311 312 311 311 310 314 318 315 309 307 295 306 317 306 286 286 289 289 296 306
286 287 290 291 292 293 297 300 304 308 309 308 308 308 309 309 309 309 310 310 310 310 310 313 316 315 311 300 295 301 311 319 313 307 295 288 286 279
286 287 288 289 289 291 292 297 298 300 306 307 306 306 307 308 308 308 309 310 310 311 312 312 314 313 310 299 293 296 307 314 315 315 313 302 294 289
Wind_Speed_850mb
62 64 62 57 52 59 54 61 60 44 52 44 32 40 33 30 28 28 24 26 29 34 38 41 46 51 56 59 65 69 71 70 69 65 58 58 58 63
44 41 40 36 34 33 35 40 43 31 36 34 39 31 32 26 22 19 22 27 34 39 43 48 52 56 60 64 67 69 72 72 72 70 67 64 62 62
41 35 38 35 33 30 24 26 22 18 21 31 34 30 17 15 17 22 27 32 36 42 45 49 54 57 59 61 67 70 69 67 62 59 60 64 63 64
50 41 46 38 32 30 25 18 11 10 13 20 22 16 13 16 22 27 32 36 37 42 46 51 56 58 56 68 70 68 62 58 56 60 65 70 74 71
46 40 40 30 35 32 27 27 23 19 16 16 12 9 13 20 26 31 36 40 41 44 50 53 51 56 63 61 60 53 51 52 58 63 69 71 71 66
48 49 48 38 37 29 22 21 19 16 13 9 4 7 15 21 30 37 41 47 49 49 53 52 61 70 68 61 49 45 49 57 62 65 62 58 61 63
45 43 36 36 33 26 19 15 12 13 9 6 7 13 21 28 34 39 48 53 55 53 54 65 73 76 69 55 59 56 60 63 58 50 45 61 67 65
40 37 31 27 23 19 15 12 12 13 10 10 14 20 25 32 38 44 51 59 67 54 75 82 76 81 62 65 71 77 72 54 45 57 68 64 68 71
33 29 25 20 16 14 10 9 11 11 12 15 18 23 30 35 43 49 54 58 63 69 73 91 79 76 72 79 84 76 57 53 70 67 70 72 74 76
25 23 18 14 13 14 14 14 13 14 16 20 24 27 33 39 45 51 57 62 69 70 60 91 76 82 86 92 75 65 70 85 77 72 78 77 80 83
18 14 14 11 9 9 11 13 15 18 20 22 26 31 36 39 44 53 54 61 72 73 61 56 76 89 100 76 68 64 76 67 70 84 86 81 80 84
12 10 11 13 15 18 21 23 24 28 29 30 32 35 39 41 43 50 53 58 61 69 52 64 76 75 90 80 71 97 92 96 91 95 88 80 74 82
9 10 11 13 16 20 24 27 30 34 37 41 43 44 46 48 51 53 55 59 62 68 67 66 85 86 80 99 106 108 98 98 103 100 91 79 70 63
11 13 16 19 22 26 30 33 36 40 42 46 48 49 51 52 54 58 58 61 63 71 68 66 86 84 91 105 112 109 105 106 102 98 83 80 76 71
13 15 17 22 27 30 33 36 40 43 45 48 51 53 55 58 61 64 65 68 72 71 68 71 81 84 85 97 108 111 106 109 89 81 83 87 86 78
17 22 26 31 34 38 40 42 45 47 50 53 55 57 61 64 66 67 72 72 80 81 67 71 79 80 87 90 96 111 106 99 103 96 96 93 87 82
26 29 31 34 38 42 45 48 51 54 57 59 61 64 67 70 72 71 74 78 83 88 87 77 81 85 85 86 96 99 103 100 96 97 96 97 89 85
43 39 41 42 45 49 52 55 57 59 61 64 67 69 71 73 77 76 76 79 86 88 90 92 94 94 96 92 80 90 88 97 97 93 94 87 98 74
52 53 52 50 52 56 60 64 66 67 68 68 70 72 75 78 82 84 82 83 88 90 93 96 94 90 85 85 92 77 79 87 99 100 87 86 91 87
61 61 63 61 62 62 65 69 72 73 74 74 74 75 77 81 85 85 84 86 89 94 99 95 90 88 83 93 94 103 84 88 86 88 90 92 92 89
74 73 70 70 71 72 73 76 78 79 78 79 78 79 80 83 89 88 88 88 91 96 102 99 93 86 88 90 96 105 94 73 67 79 92 92 98 96
80 82 79 79 80 79 79 82 85 84 84 84 83 83 85 87 91 90 90 92 96 100 101 100 94 87 86 83 95 102 103 90 80 77 67 70 84 95
86 87 86 86 85 86 86 86 88 89 87 86 85 85 87 93 91 90 91 95 100 101 99 102 93 89 90 86 88 97 99 96 93 90 89 64 62 61
Wind_Direction_850mb
241 219 215 207 195 200 206 203 212 182 198 207 206 208 212 222 234 251 275 290 288 283 283 287 291 292 293 294 294 295 297 297 298 297 293 291 290 289
185 176 179 177 184 190 197 201 207 213 195 208 210 208 214 224 243 264 268 269 276 284 288 290 293 296 298 298 298 301 302 300 297 294 293 292 291 290
142 142 135 133 129 132 147 169 182 175 174 188 203 210 228 236 249 262 271 279 283 289 293 295 297 299 302 305 305 302 299 298 296 295 295 293 291 289
111 111 109 106 109 112 122 135 143 146 162 163 169 190 228 259 270 277 284 288 292 295 298 301 302 305 309 309 305 301 300 299 299 297 292 288 285 286
113 104 89 97 99 98 108 117 125 130 129 131 155 212 258 278 286 294 298 298 304 304 306 306 306 309 311 308 301 299 299 298 294 291 289 288 287 290
115 107 110 114 106 108 110 107 109 112 108 110 144 276 288 294 305 310 309 313 313 312 309 308 314 314 318 314 307 304 304 304 301 297 293 296 297 294
102 100 102 92 95 96 91 90 90 77 63 30 342 316 322 319 316 315 316 315 312 316 316 317 319 315 321 314 313 314 316 316 307 302 302 303 298 296
101 101 98 94 95 92 83 70 55 43 21 352 331 324 323 319 317 319 319 322 322 325 319 318 320 316 318 314 318 326 327 321 314 310 306 303 302 297
98 98 95 89 79 70 56 35 23 1 337 331 328 326 321 321 320 325 322 317 313 316 319 313 320 312 317 319 324 322 325 320 315 312 312 312 305 297
90 82 79 72 52 30 13 0 346 337 333 332 330 326 322 325 322 316 315 312 312 315 326 306 317 315 318 318 321 321 322 323 319 309 307 303 296 294
69 64 51 36 21 355 331 320 320 321 319 318 322 325 323 321 315 311 315 310 311 314 325 300 316 315 318 323 323 318 314 304 296 304 310 302 296 295
49 30 6 353 348 331 318 320 321 320 320 316 317 320 319 317 313 312 314 309 310 315 319 306 309 320 318 311 303 310 309 311 312 316 311 305 298 294
18 3 346 334 322 310 313 320 322 322 323 322 322 322 320 318 318 316 315 309 304 299 318 310 303 310 305 308 307 310 312 312 316 316 313 311 309 299
351 342 337 328 321 324 324 321 318 316 317 316 316 319 319 319 317 315 313 308 306 308 313 305 299 306 308 307 304 311 311 312 317 315 314 311 306 303
319 316 313 316 322 322 320 316 313 313 312 312 315 318 319 320 319 316 313 313 311 312 312 307 306 310 307 305 304 307 309 313 315 313 310 304 304 305
322 329 328 326 325 323 321 319 318 316 314 313 313 316 318 319 318 317 314 315 311 312 311 310 312 311 307 305 306 304 309 302 313 312 313 307 306 308
310 313 316 317 318 320 320 320 318 317 316 315 314 314 315 317 318 318 315 313 309 312 314 315 316 314 308 306 302 306 308 308 311 313 311 304 304 307
297 303 309 313 315 316 317 318 317 316 315 314 313 312 312 314 316 315 313 311 310 313 314 317 319 317 314 308 301 304 303 302 304 301 303 294 299 305
289 293 297 304 311 315 316 316 316 315 313 312 310 310 311 313 315 314 314 312 311 312 313 315 316 314 302 292 308 305 294 294 295 297 301 297 296 304
286 288 293 296 300 306 312 313 313 313 312 311 309 309 310 311 312 312 311 311 311 311 311 315 316 316 304 297 297 301 307 290 296 297 304 305 302 304
287 290 293 294 295 297 302 308 310 311 311 309 308 307 308 310 310 311 311 312 311 311 310 314 318 315 309 307 295 306 317 306 286 286 289 289 296 306
286 287 290 291 292 293 297 300 304 308 309 308 308 308 309 309 309 309 310 310 310 310 310 313 316 315 311 300 295 301 311 319 313 307 295 288 286 279
286 287 288 289 289 291 292 297 298 300 306 307 306 306 307 308 308 308 309 310 310 311 312 312 314 313 310 299 293 296 307 314 315 315 313 302 294 289